Location: Sweet Grass
(48.9965°N, 111.9649°W)
Time: 17:50:36
(UTC+00:00)

Max Valier Satellite - Visible Passes

Search period start: 28 March 2023 00:00
Search period end: 07 April 2023 00:00
Orbit: 454 x 467 km, 97.2° (Epoch: 27 March)

Date Brightness Start Highest point End Pass type
(mag) Time Alt. Az. Time Alt. Az. Time Alt. Az.
28 Mar ? 02:48:30 10° SSE 02:51:56 85° W 02:55:23 10° NNW visible
29 Mar ? 02:17:12 10° SE 02:20:24 38° ENE 02:23:37 10° N visible
29 Mar ? 03:51:25 10° SW 03:53:35 16° W 03:55:45 10° NW visible
30 Mar ? 03:18:34 10° SSW 03:21:45 35° W 03:24:56 10° NNW visible
31 Mar ? 02:46:35 10° SSE 02:50:00 89° WSW 02:53:28 10° NNW visible
01 Apr ? 03:49:14 10° SW 03:51:30 17° W 03:53:47 10° NW visible
02 Apr ? 03:16:20 10° SSW 03:19:32 37° W 03:22:46 10° NNW visible
03 Apr ? 02:44:15 10° SSE 02:47:40 86° ENE 02:51:08 10° NNW visible
04 Apr ? 03:46:38 10° SW 03:49:01 17° W 03:51:24 10° NW visible
05 Apr ? 03:13:41 10° S 03:16:55 40° W 03:20:12 10° NNW visible
06 Apr ? 02:41:31 10° SSE 02:44:56 80° ENE 02:48:24 10° N visible
